Flag for Portugal Weather past 2 weeks in Porto, Portugal

52 °F


Feels Like: 48 °F
Forecast: N/A
Wind: 10 mph from North

Location: Porto / Pedras Rubras

Current Time: Nov 27, 2015 at 9:46:29 PM

Latest Report: Nov 27, 2015 at 9:00 PM

Visibility: 10 mi

Pressure: 30.15 "Hg

Humidity: 88%

Dew point: 48 °F

Location of PortoLocation

Historic Weather in Porto — Graph


Porto temperature yesterday

Maximum temperature yesterday: 63 °F (at 12:30 PM)
Minimum temperature yesterday: 45 °F (at 1:30 AM)
Average temperature yesterday: 54 °F

Past Weeks' High & Low Weather Summary

High72 °F (Nov 14, 1:00 PM)100% (Nov 12, 10:00 PM)30.51 "Hg (Nov 12, 10:00 PM)
Low37 °F (Nov 23, 6:00 AM)47% (Nov 23, 11:30 AM)30.01 "Hg (Nov 22, 3:00 PM)
Average55 °F86%30.33 "Hg
* Reported Nov 12 8:00 PM — Nov 27 8:00 PM, Porto, Weather by CustomWeather, © 2015

Note: Actual official high and low records may vary slightly from our data, if they occured in-between our weather recording intervals... More about our weather records


Porto weather history for previous 24 hours

Time TempWeatherWind HumidityBarometerVisibility
8:00 PM
Fri, Nov 27
54 °FClear.8 mph94%30.15 "Hg10 mi
7:30 PM54 °FClear.9 mph94%30.15 "Hg10 mi
7:00 PM54 °FClear.8 mph94%30.15 "Hg10 mi
6:30 PM55 °FClear.8 mph94%30.15 "Hg10 mi
6:00 PM55 °FClear.6 mph88%30.15 "Hg10 mi
5:30 PM55 °FClear.7 mph88%30.12 "Hg10 mi
5:00 PM57 °FSunny.12 mph88%30.12 "Hg10 mi
4:30 PM59 °FSunny.14 mph82%30.12 "Hg10 mi
4:00 PM61 °FSunny.13 mph77%30.12 "Hg10 mi
3:30 PM61 °FSunny.15 mph77%30.12 "Hg10 mi
3:00 PM61 °FSunny.17 mph77%30.12 "Hg10 mi
2:30 PM61 °FSunny.14 mph77%30.12 "Hg10 mi
2:00 PM63 °FSunny.9 mph73%30.12 "Hg10 mi
1:30 PM63 °FPassing clouds.9 mph73%30.12 "HgN/A
1:00 PM61 °FSunny.8 mph77%30.15 "Hg10 mi
12:30 PM61 °FPassing clouds.7 mph77%30.15 "HgN/A
12:00 PM61 °FPassing clouds.7 mph72%30.15 "HgN/A
11:30 AM59 °FPassing clouds.8 mph77%30.15 "HgN/A
11:00 AM57 °FSunny.8 mph82%30.18 "Hg10 mi
10:30 AM57 °FSunny.1 mph82%30.18 "Hg10 mi
10:00 AM55 °FPassing clouds.5 mph88%30.18 "HgN/A
9:30 AM54 °FPassing clouds.3 mph94%30.18 "HgN/A
9:00 AM50 °FPassing clouds.5 mph94%30.15 "HgN/A
8:30 AM46 °FPassing clouds.3 mph100%30.15 "HgN/A
8:00 AM45 °FPassing clouds.No wind100%30.15 "HgN/A
6:30 AM48 °FClear.1 mph100%30.12 "Hg10 mi
6:00 AM45 °FClear.No wind93%30.15 "Hg10 mi
5:30 AM46 °FClear.No wind100%30.15 "Hg10 mi
5:00 AM48 °FClear.No wind100%30.15 "Hg10 mi
4:30 AM48 °FClear.3 mph94%30.15 "Hg10 mi
4:00 AM48 °FClear.No wind100%30.15 "Hg10 mi
3:00 AM50 °FClear.5 mph94%30.18 "Hg10 mi
2:30 AM50 °FClear.No wind94%30.18 "Hg10 mi
2:00 AM48 °FClear.No wind100%30.18 "Hg10 mi
1:30 AM48 °FClear.2 mph100%30.18 "Hg10 mi
1:00 AM52 °FClear.No wind100%30.21 "Hg10 mi
12:30 AM50 °FClear.2 mph94%30.21 "Hg10 mi
11:30 PM
Thu, Nov 26
52 °FClear.No wind94%30.21 "Hg10 mi
11:00 PM52 °FClear.2 mph100%30.21 "Hg10 mi
10:00 PM54 °FClear.2 mph88%30.21 "Hg10 mi
9:30 PM55 °FClear.8 mph88%30.24 "Hg10 mi
Weather by CustomWeather, © 2015

See weather overviewHow to use our weather pages